[[{"header":{"parameterUnit":"m.s-1","parameterCategory":1,"la1":30.2991,"la2":30.254,"lo1":-89.0895,"lo2":-89.0444,"dy":0.0017,"dx":0.0017,"nx":28,"ny":28,"refTime":"2025-06-14T21:00:00:Z","depth":0,"parameterNumber":2,"parameterNumberName":"U-component_of_WINDS"},"data":[0,0,0,0,0,0,0,0,0,0,0,0,0,0,0,0,0,0,0,0,0,0,0,0,0,0,0,0,0,0,0,0,0,0,0,0,0,0,0,0,0,0,0,0,0,0,0,0,0,0,0,0,0,0,0,0,0,0,2.7925,2.7925,0,2.7977,2.7977,2.7978,2.7958,2.7957,2.7955,2.7954,2.8003,2.8005,2.8007,0,0,0,0,0,0,0,0,0,0,0,0,0,2.7803,2.7805,2.7925,2.7925,2.7926,2.7977,2.7977,2.7978,2.7958,2.7957,2.7955,2.7954,2.8002,2.8005,2.8008,0,0,0,0,0,0,0,0,0,0,0,0,0,2.7855,2.7806,2.7924,2.7922,2.7922,2.7977,2.7977,2.7978,2.7958,2.7957,2.7955,2.7953,2.8001,2.8004,2.8008,2.8066,0,0,2.8019,2.8021,0,0,0,0,0,0,0,0,2.7852,2.786,2.7922,2.7922,2.7923,2.7959,2.7952,2.8007,2.7959,2.7945,2.7954,2.7952,2.7989,2.7994,2.8007,2.8068,2.807,2.8019,2.8022,2.8023,2.8024,0,0,0,0,0,0,0,2.7849,2.7857,2.7945,2.7923,2.7923,2.7917,2.7922,2.7963,2.7976,2.7946,2.7944,2.7951,2.7989,2.8004,2.8008,2.8071,2.8019,2.8022,2.8025,2.8026,2.818,2.8182,0,0,0,0,0,0,2.7846,2.7854,2.7943,2.7947,2.7883,2.7921,2.7927,2.7949,2.7976,2.7978,2.7953,2.795,2.7999,2.8004,2.801,2.8078,2.8023,2.8026,2.8028,2.8178,2.8181,2.8183,0,0,0,0,0,0,2.7843,2.7854,2.7941,2.79,2.7911,2.7925,2.795,2.7951,2.7966,2.7981,2.7983,2.7965,2.7997,2.8005,2.8052,2.8079,2.8028,2.8031,2.8176,2.8179,2.8182,2.8215,0,0,0,0,0,0,2.784,2.7853,2.7876,2.7901,2.7913,2.7984,2.7952,2.7953,2.7973,2.797,2.7993,2.7996,2.7997,2.8047,2.8056,2.8083,2.8034,2.8174,2.8177,2.8181,2.8211,2.8219,2.8225,0,0,0,0,0,2.7835,2.7883,2.7877,2.7888,2.7943,2.7986,2.7993,2.7994,2.7975,2.7997,2.8007,2.7995,2.8076,2.8052,2.8062,2.8091,2.8172,2.8176,2.818,2.8208,2.8217,2.8225,0,0,0,0,0,0,2.7859,2.7886,2.788,2.7937,2.796,2.7982,2.8011,2.8004,2.803,2.8026,2.8026,2.8031,2.808,2.809,2.8064,2.8147,2.812,2.8127,2.8138,2.8147,2.8153,2.8149,2.8037,0,0,0,0,0,2.7871,2.7905,2.7926,2.7975,2.7986,2.7997,2.8016,2.8015,2.8037,2.8046,2.8059,2.808,2.811,2.8129,2.8158,2.8214,2.8217,2.8239,2.8245,2.8251,2.8255,2.8284,2.8293,2.8197,2.8197,2.8197,0,0,2.7895,2.7915,2.7936,2.798,2.7997,2.8031,2.8005,2.8042,2.8066,2.8051,2.8096,2.8107,2.813,2.8182,2.8205,2.8192,2.8283,2.8256,2.8261,2.8262,2.8289,2.8298,2.8306,2.82,2.8199,2.8199,0,0,2.7957,2.7976,2.8018,2.8036,2.8063,2.807,2.808,2.8104,2.8111,2.8157,2.8146,2.8175,2.8227,2.8243,2.8258,2.8327,2.8316,2.8336,2.837,2.8398,2.8405,2.8412,2.8434,2.8443,2.8342,2.8342,2.8342,0,2.7983,2.8035,2.8039,2.8078,2.8096,2.8087,2.8128,2.8145,2.8179,2.8191,2.8177,2.8241,2.8256,2.8311,2.8327,2.8341,2.835,2.8332,2.8404,2.8411,2.8417,2.8438,2.8447,2.8344,2.8343,2.8343,2.8343,0,2.8066,2.8102,2.8132,2.8167,2.8189,2.8229,2.8237,2.8259,2.8257,2.8265,2.8311,2.8329,2.836,2.8374,2.8372,2.8428,2.8418,2.8405,2.8377,2.8429,2.8448,2.8457,2.8347,2.8346,2.8345,2.8345,0,0,2.8141,2.8179,2.819,2.8205,2.8235,2.8262,2.83,2.8332,2.835,2.8375,2.8405,2.845,2.8437,2.8454,2.8454,2.8479,2.853,2.8462,2.8462,2.8472,2.859,2.8598,2.8608,2.8524,2.8525,2.8527,2.8587,0,2.8203,2.8272,2.8277,2.8338,2.8371,2.8363,2.8396,2.8417,2.8425,2.8453,2.8462,2.8492,2.8475,2.8485,2.8509,2.8518,2.8553,2.8514,2.8549,2.8551,2.8541,2.8619,2.8628,2.8684,2.8595,2.8597,2.8598,0,2.8284,2.8313,2.8378,2.8402,2.8416,2.8446,2.8475,2.8503,2.8526,2.853,2.855,2.8546,2.8584,2.8557,2.8607,2.8581,2.8596,2.8603,2.8605,2.8606,2.8575,2.8619,2.8702,2.871,2.861,2.8609,2.8608,0,2.833,2.8384,2.843,2.8444,2.8474,2.8495,2.8508,2.853,2.8549,2.8574,2.8586,2.8616,2.8631,2.8653,2.8656,2.8637,2.8706,2.868,2.8709,2.8708,2.8721,2.872,2.8805,2.8735,2.8735,2.8735,2.8735,0,2.8397,2.8436,2.8451,2.8478,2.8522,2.8527,2.8569,2.8581,2.8601,2.8629,2.8624,2.865,2.8655,2.8682,2.8685,2.8725,2.8733,2.8736,2.8735,2.8735,2.8734,2.8742,2.8738,2.8737,2.8737,2.8736,2.8736,0,2.8454,2.8466,2.8514,2.854,2.8548,2.8578,2.8599,2.8625,2.8634,2.867,2.8678,2.8691,2.8723,2.873,2.8767,2.8769,2.8815,2.8813,2.8808,2.8807,2.8834,2.883,2.8925,2.8937,2.8862,2.8863,2.8863,0,2.8495,2.8525,2.8555,2.8574,2.8589,2.8621,2.864,2.8647,2.8667,2.8696,2.8718,2.8749,2.8774,2.8825,2.8836,2.8864,2.8861,2.8892,2.8864,2.8862,2.8858,2.8855,2.8857,2.8896,2.8897,2.8898,2.8898,0,2.8565,2.857,2.8599,2.8631,2.8655,2.868,2.8704,2.872,2.8729,2.8752,2.8785,2.8805,2.8843,2.8874,2.8902,2.8914,2.8907,2.8908,2.8915,2.8913,2.8908,2.8909,2.882,2.8904,2.8904,2.8903,2.8903,2.8903,2.8614,2.864,2.8665,2.8698,2.8717,2.8739,2.8764,2.8777,2.8805,2.8838,2.884,2.8875,2.8897,2.8934,2.8948,2.8975,2.8964,2.8976,2.8978,2.898,2.8982,2.8906,2.898,2.898,2.898,2.898,2.8979,0,2.8682,2.8698,2.8728,2.8762,2.8788,2.8782,2.8808,2.8829,2.8861,2.8883,2.8908,2.8945,2.8975,2.899,2.9019,2.9037,2.9034,2.9044,2.9041,2.9044,2.899,2.898,2.9045,2.9045,2.9045,2.9045,2.9045,2.9045,2.872,2.8763,2.8771,2.8823,2.8839,2.8875,2.889,2.891,2.8927,2.8969,2.8995,2.9005,2.9023,2.9053,2.908,2.9083,2.9093,2.9103,2.9105,2.9054,2.9048,2.9041,2.9031,2.9106,2.9106,2.9156,2.9156,2.9156]},{"header":{"parameterUnit":"m.s-1","parameterCategory":1,"la1":30.2991,"la2":30.254,"lo1":-89.0895,"lo2":-89.0444,"dy":0.0017,"dx":0.0017,"nx":28,"ny":28,"refTime":"2025-06-14T21:00:00:Z","depth":0,"parameterNumber":3,"parameterNumberName":"V-component_of_WINDS"},"data":[0,0,0,0,0,0,0,0,0,0,0,0,0,0,0,0,0,0,0,0,0,0,0,0,0,0,0,0,0,0,0,0,0,0,0,0,0,0,0,0,0,0,0,0,0,0,0,0,0,0,0,0,0,0,0,0,0,0,2.5781,2.5782,0,2.5948,2.5949,2.5951,2.6005,2.6004,2.6003,2.6003,2.6176,2.6181,2.6186,0,0,0,0,0,0,0,0,0,0,0,0,0,2.551,2.5515,2.578,2.5783,2.5785,2.5947,2.595,2.5952,2.6005,2.6004,2.6003,2.6002,2.6174,2.618,2.6186,0,0,0,0,0,0,0,0,0,0,0,0,0,2.5647,2.5516,2.578,2.5831,2.5837,2.5947,2.595,2.5952,2.6005,2.6004,2.6003,2.6002,2.6172,2.6179,2.6187,2.626,0,0,2.6212,2.6215,0,0,0,0,0,0,0,0,2.564,2.5657,2.5821,2.5827,2.5835,2.5954,2.5918,2.6056,2.6005,2.5941,2.6002,2.6001,2.6103,2.6116,2.615,2.6268,2.6275,2.6212,2.6217,2.6221,2.6223,0,0,0,0,0,0,0,2.563,2.565,2.5847,2.5823,2.5832,2.5846,2.5864,2.5944,2.6027,2.5947,2.5951,2.597,2.6106,2.6143,2.6155,2.6278,2.6212,2.6219,2.6224,2.6227,2.6464,2.6466,0,0,0,0,0,0,2.5612,2.5642,2.5841,2.5852,2.5732,2.5852,2.5872,2.5917,2.6026,2.6041,2.5971,2.5972,2.613,2.6145,2.6161,2.6254,2.6221,2.6228,2.6233,2.6463,2.6465,2.6466,0,0,0,0,0,0,2.5606,2.5629,2.5835,2.5748,2.5775,2.5858,2.5908,2.5921,2.5957,2.6044,2.6059,2.5992,2.6129,2.615,2.6235,2.6261,2.6232,2.6239,2.6461,2.6464,2.6466,2.6439,0,0,0,0,0,0,2.5598,2.5626,2.5654,2.5748,2.578,2.5905,2.5909,2.5925,2.597,2.5973,2.6068,2.6083,2.613,2.6223,2.6243,2.6271,2.6245,2.6459,2.6462,2.6465,2.6438,2.644,2.6442,0,0,0,0,0,2.5588,2.564,2.5655,2.5679,2.5816,2.5906,2.5924,2.5976,2.5972,2.6001,2.6057,2.608,2.6254,2.6231,2.6254,2.6285,2.6458,2.6461,2.6465,2.6437,2.644,2.6442,0,0,0,0,0,0,2.5547,2.5653,2.5671,2.5755,2.5821,2.5915,2.5953,2.5977,2.6046,2.6046,2.6109,2.613,2.6211,2.6257,2.6228,2.6362,2.6357,2.6365,2.6328,2.6332,2.6334,2.6321,2.6252,0,0,0,0,0,2.5548,2.5611,2.5701,2.5767,2.5799,2.587,2.5911,2.5946,2.6017,2.6045,2.6107,2.6176,2.6247,2.6292,2.6361,2.6445,2.6467,2.6478,2.648,2.6481,2.6487,2.6536,2.6542,2.6478,2.6478,2.6478,0,0,2.555,2.5616,2.5652,2.576,2.5815,2.588,2.5893,2.5961,2.6011,2.6056,2.614,2.6188,2.6269,2.6354,2.6394,2.6395,2.651,2.6485,2.6486,2.6492,2.654,2.6546,2.6552,2.648,2.648,2.6479,0,0,2.5588,2.5643,2.5705,2.576,2.5843,2.589,2.5905,2.5995,2.6029,2.6114,2.6149,2.6209,2.6329,2.6386,2.643,2.649,2.6514,2.6511,2.6521,2.6568,2.6573,2.6578,2.66,2.6608,2.6517,2.6517,2.6517,0,2.558,2.5679,2.5733,2.58,2.5847,2.589,2.5953,2.6004,2.6106,2.6138,2.6137,2.6289,2.6346,2.6445,2.646,2.6494,2.6514,2.65,2.6568,2.6574,2.6579,2.6601,2.6609,2.6516,2.6516,2.6516,2.6517,0,2.5666,2.5734,2.5774,2.587,2.5922,2.5986,2.6051,2.6097,2.6128,2.6175,2.6262,2.6333,2.6418,2.6444,2.6475,2.6548,2.6546,2.6556,2.6553,2.6583,2.6605,2.6614,2.6515,2.6515,2.6516,2.6516,0,0,2.5682,2.5808,2.5822,2.5867,2.5962,2.6016,2.6083,2.6166,2.6205,2.6274,2.6332,2.6433,2.6443,2.6493,2.6531,2.6572,2.6616,2.6577,2.658,2.6582,2.6703,2.6695,2.6704,2.6632,2.6634,2.6636,2.6696,0,2.5732,2.5853,2.5904,2.6001,2.6066,2.6108,2.6167,2.6232,2.6279,2.6341,2.6393,2.6464,2.6471,2.6502,2.6544,2.6601,2.6641,2.6598,2.6689,2.6691,2.6667,2.6715,2.6707,2.676,2.6705,2.6706,2.6707,0,2.5807,2.5875,2.5979,2.6067,2.6096,2.6148,2.6228,2.6287,2.6363,2.6394,2.645,2.6486,2.6559,2.6551,2.6654,2.6623,2.6664,2.6698,2.6701,2.6712,2.6701,2.6727,2.6779,2.6787,2.6721,2.672,2.6719,0,2.5808,2.5927,2.6005,2.6042,2.6147,2.6182,2.6228,2.6302,2.6349,2.642,2.6451,2.6529,2.6573,2.6633,2.669,2.6679,2.6787,2.6784,2.6816,2.6815,2.6837,2.6835,2.6896,2.6862,2.6862,2.6862,2.6862,0,2.5859,2.5921,2.6007,2.6055,2.6126,2.6185,2.6254,2.6303,2.6369,2.6428,2.647,2.6524,2.6595,2.6659,2.6704,2.6783,2.6802,2.683,2.6842,2.6827,2.6823,2.6854,2.6852,2.6864,2.6864,2.6863,2.6863,0,2.5873,2.5933,2.6021,2.6113,2.6137,2.6186,2.6265,2.6314,2.6363,2.6437,2.6458,2.6535,2.6612,2.6675,2.6776,2.6807,2.689,2.6902,2.6864,2.687,2.6899,2.6895,2.6982,2.6997,2.6952,2.6953,2.6953,0,2.5901,2.595,2.6047,2.6089,2.6134,2.6201,2.6249,2.631,2.6358,2.6449,2.6487,2.6567,2.6635,2.6757,2.6823,2.6901,2.6917,2.6942,2.6929,2.6913,2.6918,2.6914,2.692,2.6943,2.6943,2.6943,2.6943,0,2.5946,2.5973,2.604,2.6118,2.6174,2.6238,2.6303,2.6336,2.6408,2.6461,2.654,2.6593,2.6697,2.6777,2.6862,2.6911,2.694,2.6947,2.6959,2.6944,2.692,2.6934,2.6868,2.6945,2.6944,2.6944,2.6944,2.6944,2.5969,2.6014,2.6089,2.6163,2.6218,2.6279,2.6329,2.6384,2.6451,2.654,2.6572,2.6654,2.673,2.6848,2.6897,2.6963,2.6965,2.6982,2.6986,2.699,2.6988,2.6909,2.6979,2.6979,2.6979,2.6979,2.6979,0,2.6015,2.6066,2.6133,2.6223,2.6281,2.6302,2.6376,2.6424,2.6495,2.6563,2.6629,2.6721,2.6799,2.6871,2.6953,2.6992,2.7008,2.7012,2.701,2.7021,2.6981,2.6963,2.6998,2.6998,2.6998,2.6998,2.6998,2.6998,2.6046,2.6125,2.6161,2.6268,2.6319,2.6399,2.6439,2.6496,2.655,2.6651,2.6716,2.6762,2.6832,2.692,2.6993,2.7012,2.7041,2.7042,2.7064,2.7026,2.7023,2.7021,2.7004,2.7047,2.7047,2.7099,2.7099,2.71]}]]